{"data":{"norad_id":58951,"epoch":"2026-05-24T21:06:38.093184Z","epoch_age_seconds":84688,"freshness":"FRESH","line1":"1 58951U 24027W   26144.87960756  .00000064  00000+0  13040-4 0  9999","line2":"2 58951  53.1624 312.1748 0001038  67.2966 292.8146 15.34390262129048","mean_motion":15.34390262,"eccentricity":0.0001038,"inclination_deg":53.1624,"raan_deg":312.1748,"arg_perigee_deg":67.2966,"mean_anomaly_deg":292.8146,"bstar":1.304e-5,"rev_number":12904,"period_min":93.848353685654,"perigee_km":462.0221015271,"apogee_km":463.44226596964,"semimajor_km":6840.8691837484,"source":"CELESTRAK","updated_at":"2026-05-25T13:38:18.792360Z"}}